When you browse on this site, cookies collect data to enhance your experience and personalize the content and advertising you see.
Visit our Privacy Policy to learn more. By continuing to use the site, you agree to this use of cookies and data.
  • Em Portugal
  • Lista de países
  • Para 7 dias
  • Temperatura da água
  • Mapas de satélite
  • Mapa do tempo
  • Widgets de tempo
  • user-avatar
    Iniciar Sessão

    Previsão horária em Recife

    Hoje, 24 Março, Domingo

    Tempo Temperatura Precipitação Vento Pressão Humidade
    00:00 +29°C° 1.9 mm 3 m/s 758 mmHg 81%
    01:00 +28°C° 1.9 mm 2 m/s 758 mmHg 82%
    02:00 +28°C° 0.4 mm 2 m/s 758 mmHg 83%
    03:00 +28°C° 0.4 mm 2 m/s 757 mmHg 83%
    04:00 +28°C° 0 mm 1 m/s 757 mmHg 85%
    05:00 +28°C° 0.1 mm 1 m/s 757 mmHg 84%
    06:00 +28°C° 0.1 mm 1 m/s 757 mmHg 84%
    07:00 +28°C° 0.1 mm 1 m/s 758 mmHg 84%
    08:00 +30°C° 0 mm 1 m/s 758 mmHg 76%
    09:00 +31°C° 0 mm 2 m/s 758 mmHg 68%
    10:00 +34°C° 0 mm 2 m/s 758 mmHg 59%
    11:00 +35°C° 0 mm 2 m/s 758 mmHg 56%
    12:00 +35°C° 0 mm 3 m/s 758 mmHg 52%
    13:00 +36°C° 0 mm 3 m/s 757 mmHg 48%
    14:00 +36°C° 0 mm 4 m/s 757 mmHg 51%
    15:00 +35°C° 0 mm 4 m/s 756 mmHg 53%
    16:00 +35°C° 0 mm 4 m/s 756 mmHg 56%
    17:00 +33°C° 0 mm 4 m/s 756 mmHg 62%
    18:00 +32°C° 0 mm 4 m/s 756 mmHg 68%
    19:00 +30°C° 0 mm 3 m/s 756 mmHg 73%
    20:00 +30°C° 0.1 mm 3 m/s 757 mmHg 76%
    21:00 +29°C° 0.1 mm 3 m/s 757 mmHg 78%
    22:00 +29°C° 0.1 mm 4 m/s 758 mmHg 80%
    23:00 +29°C° 0.1 mm 3 m/s 758 mmHg 81%

    Amanhã, 25 Março, Segunda-feira

    Tempo Temperatura Precipitação Vento Pressão Humidade
    00:00 +29°C° 0.1 mm 3 m/s 758 mmHg 82%
    01:00 +29°C° 0.1 mm 3 m/s 758 mmHg 82%
    02:00 +28°C° 0 mm 3 m/s 757 mmHg 82%
    03:00 +28°C° 0 mm 3 m/s 757 mmHg 82%
    04:00 +28°C° 0 mm 2 m/s 756 mmHg 82%
    05:00 +28°C° 0 mm 2 m/s 756 mmHg 82%
    06:00 +28°C° 0 mm 2 m/s 756 mmHg 81%
    07:00 +28°C° 0 mm 2 m/s 757 mmHg 80%
    08:00 +30°C° 0 mm 2 m/s 757 mmHg 73%
    09:00 +31°C° 0 mm 3 m/s 757 mmHg 65%
    10:00 +34°C° 0 mm 3 m/s 758 mmHg 57%
    11:00 +34°C° 0 mm 3 m/s 757 mmHg 54%
    12:00 +35°C° 0 mm 4 m/s 757 mmHg 51%
    13:00 +36°C° 0 mm 4 m/s 757 mmHg 48%
    14:00 +36°C° 0 mm 4 m/s 756 mmHg 49%
    15:00 +35°C° 0 mm 4 m/s 755 mmHg 50%
    16:00 +35°C° 0 mm 4 m/s 754 mmHg 52%
    17:00 +33°C° 0 mm 4 m/s 755 mmHg 58%
    18:00 +31°C° 0 mm 3 m/s 755 mmHg 64%
    19:00 +30°C° 0 mm 3 m/s 755 mmHg 69%
    20:00 +30°C° 0 mm 3 m/s 756 mmHg 71%
    21:00 +29°C° 0 mm 3 m/s 756 mmHg 73%
    22:00 +29°C° 0 mm 2 m/s 757 mmHg 74%
    23:00 +29°C° 0 mm 2 m/s 757 mmHg 75%

    Depois de amanhã, 26 Março, Terça-feira

    Tempo Temperatura Precipitação Vento Pressão Humidade
    00:00 +29°C° 0 mm 2 m/s 757 mmHg 76%
    01:00 +29°C° 0 mm 2 m/s 757 mmHg 78%
    02:00 +28°C° 0.2 mm 1 m/s 756 mmHg 79%
    03:00 +28°C° 0.2 mm 1 m/s 756 mmHg 80%
    04:00 +28°C° 0.2 mm 1 m/s 756 mmHg 81%
    05:00 +28°C° 0.6 mm 1 m/s 756 mmHg 81%
    06:00 +28°C° 0.6 mm 1 m/s 756 mmHg 81%
    07:00 +28°C° 0.6 mm 1 m/s 757 mmHg 82%
    08:00 +30°C° 0 mm 1 m/s 757 mmHg 74%
    09:00 +31°C° 0 mm 1 m/s 758 mmHg 66%
    10:00 +34°C° 0 mm 2 m/s 758 mmHg 59%
    11:00 +34°C° 0 mm 2 m/s 758 mmHg 56%
    12:00 +35°C° 0 mm 3 m/s 757 mmHg 54%
    13:00 +36°C° 0 mm 3 m/s 757 mmHg 51%
    14:00 +35°C° 0 mm 4 m/s 756 mmHg 53%
    15:00 +35°C° 0 mm 4 m/s 755 mmHg 55%
    16:00 +34°C° 0 mm 4 m/s 755 mmHg 57%
    17:00 +33°C° 0 mm 4 m/s 755 mmHg 62%
    18:00 +31°C° 0 mm 3 m/s 756 mmHg 67%
    19:00 +30°C° 0 mm 3 m/s 756 mmHg 72%
    20:00 +30°C° 0 mm 3 m/s 757 mmHg 73%
    21:00 +30°C° 0 mm 3 m/s 757 mmHg 74%
    22:00 +30°C° 0 mm 3 m/s 758 mmHg 76%
    23:00 +29°C° 0.2 mm 3 m/s 757 mmHg 77%

    27 Março, Quarta-feira

    Tempo Temperatura Precipitação Vento Pressão Humidade
    00:00 +29°C° 0.2 mm 2 m/s 757 mmHg 79%
    01:00 +29°C° 0.2 mm 2 m/s 757 mmHg 81%
    02:00 +29°C° 0.2 mm 2 m/s 757 mmHg 82%
    03:00 +28°C° 0.2 mm 2 m/s 756 mmHg 83%
    04:00 +28°C° 0.2 mm 1 m/s 756 mmHg 84%
    05:00 +28°C° 0.2 mm 1 m/s 756 mmHg 84%
    06:00 +28°C° 0.2 mm 1 m/s 757 mmHg 83%
    07:00 +29°C° 0.2 mm 1 m/s 757 mmHg 83%
    08:00 +30°C° 0.1 mm 2 m/s 758 mmHg 76%
    09:00 +31°C° 0.1 mm 2 m/s 758 mmHg 69%
    10:00 +34°C° 0.1 mm 2 m/s 758 mmHg 62%
    11:00 +35°C° 0 mm 3 m/s 758 mmHg 59%
    12:00 +35°C° 0 mm 4 m/s 757 mmHg 56%
    13:00 +36°C° 0 mm 4 m/s 757 mmHg 53%
    14:00 +36°C° 0 mm 4 m/s 756 mmHg 55%
    15:00 +35°C° 0 mm 4 m/s 756 mmHg 57%
    16:00 +35°C° 0 mm 4 m/s 756 mmHg 59%
    17:00 +33°C° 0 mm 4 m/s 756 mmHg 64%
    18:00 +32°C° 0 mm 4 m/s 757 mmHg 68%
    19:00 +30°C° 0 mm 3 m/s 757 mmHg 73%
    20:00 +30°C° 0.5 mm 3 m/s 757 mmHg 76%
    21:00 +30°C° 0.5 mm 3 m/s 758 mmHg 78%
    22:00 +29°C° 0.5 mm 4 m/s 758 mmHg 81%
    23:00 +29°C° 0.5 mm 3 m/s 758 mmHg 82%

    28 Março, Quinta-feira

    Tempo Temperatura Precipitação Vento Pressão Humidade
    00:00 +29°C° 0.5 mm 3 m/s 758 mmHg 83%
    01:00 +29°C° 0.5 mm 3 m/s 757 mmHg 84%
    02:00 +28°C° 0.3 mm 3 m/s 757 mmHg 84%
    03:00 +28°C° 0.3 mm 3 m/s 757 mmHg 84%
    04:00 +28°C° 0.3 mm 2 m/s 757 mmHg 85%
    05:00 +28°C° 1.7 mm 2 m/s 757 mmHg 84%
    06:00 +28°C° 1.7 mm 2 m/s 757 mmHg 84%
    07:00 +28°C° 1.7 mm 1 m/s 758 mmHg 83%
    08:00 +30°C° 1.2 mm 1 m/s 758 mmHg 76%
    09:00 +31°C° 1.2 mm 2 m/s 758 mmHg 69%
    10:00 +32°C° 1.2 mm 2 m/s 759 mmHg 62%
    11:00 +34°C° 0 mm 3 m/s 758 mmHg 59%
    12:00 +35°C° 0 mm 4 m/s 758 mmHg 56%
    13:00 +35°C° 0 mm 5 m/s 757 mmHg 53%
    14:00 +35°C° 0 mm 5 m/s 757 mmHg 55%
    15:00 +35°C° 0 mm 5 m/s 757 mmHg 57%
    16:00 +34°C° 0 mm 5 m/s 756 mmHg 59%
    17:00 +33°C° 0 mm 4 m/s 757 mmHg 64%
    18:00 +32°C° 0 mm 4 m/s 757 mmHg 69%
    19:00 +30°C° 0 mm 4 m/s 758 mmHg 74%
    20:00 +30°C° 0.1 mm 4 m/s 758 mmHg 76%
    21:00 +30°C° 0.1 mm 4 m/s 758 mmHg 78%
    22:00 +29°C° 0.1 mm 4 m/s 759 mmHg 80%
    23:00 +29°C° 0.1 mm 4 m/s 758 mmHg 80%

    29 Março, Sexta-feira

    Tempo Temperatura Precipitação Vento Pressão Humidade
    00:00 +29°C° 0.1 mm 4 m/s 758 mmHg 81%
    01:00 +29°C° 0.1 mm 3 m/s 757 mmHg 82%
    02:00 +29°C° 0.3 mm 3 m/s 757 mmHg 83%
    03:00 +29°C° 0.3 mm 3 m/s 757 mmHg 84%
    04:00 +29°C° 0.3 mm 3 m/s 757 mmHg 85%
    05:00 +29°C° 1.5 mm 3 m/s 757 mmHg 85%
    06:00 +29°C° 1.5 mm 3 m/s 757 mmHg 85%
    07:00 +28°C° 1.5 mm 3 m/s 758 mmHg 85%
    08:00 +29°C° 0.9 mm 3 m/s 758 mmHg 79%
    09:00 +31°C° 0.9 mm 3 m/s 758 mmHg 74%
    10:00 +33°C° 0.9 mm 3 m/s 759 mmHg 68%
    11:00 +33°C° 1.5 mm 3 m/s 758 mmHg 65%
    12:00 +34°C° 1.5 mm 3 m/s 758 mmHg 61%
    13:00 +34°C° 1.5 mm 3 m/s 757 mmHg 57%
    14:00 +34°C° 0.1 mm 3 m/s 757 mmHg 58%
    15:00 +34°C° 0.1 mm 3 m/s 756 mmHg 59%
    16:00 +34°C° 0.1 mm 4 m/s 756 mmHg 60%
    17:00 +33°C° 0 mm 3 m/s 756 mmHg 64%
    18:00 +31°C° 0 mm 3 m/s 757 mmHg 68%
    19:00 +30°C° 0 mm 2 m/s 757 mmHg 73%
    20:00 +30°C° 0.3 mm 2 m/s 758 mmHg 75%
    21:00 +29°C° 0.3 mm 2 m/s 758 mmHg 78%
    22:00 +29°C° 0.3 mm 2 m/s 758 mmHg 80%
    23:00 +29°C° 1.4 mm 2 m/s 758 mmHg 81%
    Mostrar mais